Calgary Springbank,

9:21 AM MDT on May 23, 2017 (GMT -0600)
Calgary Springbank

Weather History for CYBW - May, 2014

Change the Weather History Date:

Tuesday, May 20, 2014

  Actual Average Record
Temperature  
Mean Temperature 50 °F -  
Max Temperature 66 °F 59 °F 71 °F (2008)
Min Temperature 35 °F 38 °F 22 °F (2012)
Degree Days  
Heating Degree Days 14    
Moisture  
Dew Point 39 °F    
Average Humidity 73    
Maximum Humidity 100    
Minimum Humidity 32    
Precipitation  
Precipitation 0.00 in - - ()
Sea Level Pressure  
Sea Level Pressure 30.01 in    
Wind  
Wind Speed 6 mph ()    
Max Wind Speed 16 mph    
Max Gust Speed 23 mph    
Visibility 7.6 miles    
Events Rain    
Averages and records for this station are not official NWS values.
T = Trace of Precipitation, MM = Missing Value Source: Averaged Metar Reports

Daily Weather History Graph

Daily Weather History Graph

Search for Another Location

Airport or City:

Trip Planner

Search our weather history database for the weather conditions in past years. The results will help you decide how hot, cold, wet, or windy it might be!

Date:

Astronomy

May. 20, 2014 Rise Set
Actual Time 5:40 AM MDT 9:28 PM MDT
Civil Twilight 4:58 AM MDT 10:10 PM MDT
Nautical Twilight 4:00 AM MDT 11:09 PM MDT
Astronomical Twilight 2:25 AM MDT 12:47 AM MDT
Moon 1:44 AM MDT (5/20) 12:11 PM MDT (5/20)
Length of Visible Light 17h 12m
Length of Day
15h 48m
Waning Gibbous, 59% of the Moon is Illuminated
May 20
Waning Gibbous
May 21
Last Quarter
May 28
New
Jun 5
First Quarter
Jun 12
Full

Hourly Weather History & Observations

Time (MDT) Temp. Windchill Dew Point Humidity Pressure Visibility Wind Dir Wind Speed Gust Speed Precip Events Conditions
12:00 AM 48.2 °F - 42.8 °F 82% 29.99 in 9.0 mi ESE 6.9 mph - N/A Rain Light Rain
12:16 AM 46.4 °F 43.5 °F 42.8 °F 87% 29.99 in 9.0 mi SSE 5.8 mph - N/A   Overcast
12:29 AM 46.4 °F 44.3 °F 42.8 °F 87% 29.99 in 9.0 mi ESE 4.6 mph - N/A Rain Light Rain
12:39 AM 46.4 °F 44.3 °F 42.8 °F 87% 30.00 in 9.0 mi ESE 4.6 mph - N/A   Overcast
1:00 AM 44.6 °F 41.4 °F 42.8 °F 93% 30.00 in 9.0 mi West 5.8 mph - N/A   Overcast
2:00 AM 42.8 °F 38.6 °F 41.0 °F 93% 29.99 in 9.0 mi SW 6.9 mph - N/A   Overcast
3:00 AM 39.2 °F 35.9 °F 37.4 °F 93% 30.00 in 9.0 mi WSW 4.6 mph - N/A   Clear
4:00 AM 37.4 °F 32.8 °F 37.4 °F 100% 30.01 in 9.0 mi NW 5.8 mph - N/A   Clear
4:31 AM 37.4 °F 33.8 °F 35.6 °F 93% 30.02 in 5.0 mi NNW 4.6 mph - N/A   Mostly Cloudy
4:36 AM 37.4 °F 34.9 °F 37.4 °F 100% 30.02 in 2.2 mi NNW 3.5 mph - N/A   Overcast
4:42 AM 37.4 °F 34.9 °F 37.4 °F 100% 30.02 in 0.8 mi NW 3.5 mph - N/A   Overcast
4:49 AM 35.6 °F 29.9 °F 35.6 °F 100% 30.03 in 1.0 mi NW 6.9 mph - N/A   Overcast
4:56 AM 35.6 °F 29.9 °F 35.6 °F 100% 30.02 in 3.0 mi NW 6.9 mph - N/A   Overcast
5:00 AM 35.6 °F 30.7 °F 35.6 °F 100% 30.04 in 3.0 mi NW 5.8 mph - N/A   Overcast
5:08 AM 37.4 °F 32.8 °F 37.4 °F 100% 30.04 in 6.0 mi NW 5.8 mph - N/A   Overcast
5:21 AM 35.6 °F 32.8 °F 35.6 °F 100% 30.04 in 5.0 mi NNW 3.5 mph - N/A   Overcast
6:00 AM 35.6 °F 29.9 °F 35.6 °F 100% 30.04 in 4.0 mi NW 6.9 mph - N/A   Overcast
6:03 AM 35.6 °F 29.9 °F 35.6 °F 100% 30.04 in 6.0 mi WNW 6.9 mph - N/A   Overcast
7:00 AM 41.0 °F 39.0 °F 39.2 °F 93% 30.04 in 9.0 mi NW 3.5 mph - N/A   Overcast
8:00 AM 42.8 °F 39.3 °F 39.2 °F 87% 30.05 in 9.0 mi NW 5.8 mph - N/A   Overcast
9:00 AM 46.4 °F 44.3 °F 41.0 °F 81% 30.05 in 9.0 mi WNW 4.6 mph - N/A   Mostly Cloudy
10:00 AM 53.6 °F - 41.0 °F 62% 30.04 in 9.0 mi Variable 2.3 mph - N/A   Scattered Clouds
11:00 AM 57.2 °F - 39.2 °F 51% 30.02 in 9.0 mi SW 4.6 mph - N/A   Clear
12:00 PM 60.8 °F - 37.4 °F 42% 30.01 in 9.0 mi Variable 3.5 mph - N/A   Mostly Cloudy
1:00 PM 62.6 °F - 32.0 °F 32% 30.01 in 9.0 mi Variable 3.5 mph - N/A   Scattered Clouds
2:00 PM 62.6 °F - 35.6 °F 37% 30.01 in 9.0 mi Variable 8.1 mph - N/A   Overcast
3:00 PM 62.6 °F - 33.8 °F 34% 30.01 in 9.0 mi Variable 4.6 mph - N/A   Mostly Cloudy
4:00 PM 66.2 °F - 35.6 °F 32% 29.99 in 9.0 mi SSE 15.0 mph 23.0 mph N/A   Mostly Cloudy
5:00 PM 64.4 °F - 37.4 °F 37% 29.99 in 9.0 mi South 4.6 mph 17.3 mph N/A   Clear
5:11 PM 66.2 °F - 39.2 °F 37% 29.99 in 9.0 mi South 16.1 mph - N/A   Mostly Cloudy
6:00 PM 64.4 °F - 37.4 °F 37% 29.98 in 9.0 mi South 8.1 mph - N/A   Mostly Cloudy
7:00 PM 62.6 °F - 39.2 °F 42% 29.98 in 9.0 mi South 11.5 mph - N/A   Mostly Cloudy
7:21 PM 59.0 °F - 42.8 °F 55% 29.99 in 9.0 mi SSW 15.0 mph - N/A Rain Light Rain
7:52 PM 59.0 °F - 44.6 °F 59% 30.00 in 9.0 mi South 10.4 mph - N/A   Mostly Cloudy
8:00 PM 59.0 °F - 44.6 °F 59% 29.99 in 9.0 mi South 8.1 mph - N/A   Mostly Cloudy
9:00 PM 55.4 °F - 41.0 °F 58% 29.99 in 9.0 mi WSW 9.2 mph - N/A   Clear
10:00 PM 50.0 °F - 37.4 °F 62% 30.00 in 9.0 mi WSW 3.5 mph - N/A   Clear
11:00 PM 46.4 °F 42.9 °F 35.6 °F 66% 29.99 in 9.0 mi SSW 6.9 mph - N/A   Mostly Cloudy